This is the latest recevied weather packets stored in our database for station/object K1FFK-1. If no packets are shown the sender has not sent any weather packets the latest 10 day(s).
| Time | Temp. | Humidity | Pressure | Rain* | Wind** | Luminosity | Snow |
|---|---|---|---|---|---|---|---|
| 1777765293 | 0.56° C | 69% | 1013 hPa | 0 mm | - | - | - |
| 1777764695 | 1.11° C | 67% | 1013 hPa | 0 mm | - | - | - |
| 1777764093 | 1.67° C | 67% | 1013 hPa | 0 mm | - | - | - |
| 1777763494 | 1.67° C | 65% | 1012.9 hPa | 0 mm | - | - | - |
| 1777762895 | 1.67° C | 65% | 1012.8 hPa | 0 mm | - | - | - |
| 1777762294 | 1.67° C | 65% | 1012.8 hPa | 0 mm | - | - | - |
| 1777761694 | 2.22° C | 64% | 1012.7 hPa | 0 mm | - | - | - |
| 1777761093 | 2.22° C | 63% | 1012.8 hPa | 0 mm | - | - | - |
| 1777760493 | 2.78° C | 62% | 1012.5 hPa | 0 mm | - | - | - |
| 1777759894 | 2.22° C | 63% | 1012.4 hPa | 0 mm | - | - | - |
| 1777759294 | 2.78° C | 62% | 1012.1 hPa | 0 mm | - | - | - |
| 1777758694 | 2.78° C | 63% | 1012.3 hPa | 0 mm | - | - | - |
| 1777758094 | 2.78° C | 63% | 1012.2 hPa | 0 mm | - | - | - |
| 1777757494 | 2.78° C | 65% | 1012.3 hPa | 0 mm | - | - | - |
| 1777756894 | 2.78° C | 65% | 1012.1 hPa | 0 mm | - | - | - |
| 1777756293 | 3.33° C | 68% | 1012 hPa | 0 mm | - | - | - |
| 1777755693 | 3.33° C | 69% | 1011.9 hPa | 0 mm | - | - | - |
| 1777755095 | 3.33° C | 68% | 1011.9 hPa | 0 mm | - | - | - |
| 1777754494 | 3.33° C | 66% | 1011.9 hPa | 0 mm | - | - | - |
| 1777753894 | 2.78° C | 67% | 1011.8 hPa | 0 mm | - | - | - |
| 1777753295 | 2.78° C | 73% | 1011.7 hPa | 0 mm | - | - | - |
| 1777752693 | 2.78° C | 73% | 1011.9 hPa | 0 mm | - | - | - |
| 1777752093 | 2.78° C | 75% | 1011.9 hPa | 0 mm | - | - | - |
| 1777751493 | 3.33° C | 77% | 1012 hPa | 0 mm | - | - | - |
| 1777750895 | 3.89° C | 76% | 1012 hPa | 0 mm | - | - | - |
* Rain latest hour (hover to see other rain measurements)
** Current wind speed in m/s (hover to see current wind gust speed)